When you browse on this site, cookies collect data to enhance your experience and personalize the content and advertising you see.
Visit our Privacy Policy to learn more. By continuing to use the site, you agree to this use of cookies and data.
  • In Slovakia
  • List of Countries
  • For 7 days
  • Water Temperature
  • Weather Map
  • Weather Widgets
  • user-avatar
    Login

    Hourly Weather Giumri

    Today, 22 August, Thursday

    Time Temperature Precipitation Wind Pressure Humidity
    00:00 +17°C° 0 mm 3 mps 635 mmHg 38%
    01:00 +17°C° 0 mm 3 mps 635 mmHg 39%
    02:00 +17°C° 0 mm 3 mps 635 mmHg 41%
    03:00 +16°C° 0 mm 3 mps 634 mmHg 43%
    04:00 +16°C° 0 mm 2 mps 634 mmHg 44%
    05:00 +16°C° 0 mm 2 mps 634 mmHg 45%
    06:00 +16°C° 0 mm 2 mps 634 mmHg 47%
    07:00 +18°C° 0 mm 2 mps 635 mmHg 42%
    08:00 +21°C° 0 mm 3 mps 636 mmHg 37%
    09:00 +25°C° 0 mm 3 mps 637 mmHg 32%
    10:00 +27°C° 0 mm 3 mps 637 mmHg 30%
    11:00 +28°C° 0 mm 4 mps 637 mmHg 28%
    12:00 +30°C° 0 mm 4 mps 637 mmHg 26%
    13:00 +30°C° 0 mm 5 mps 636 mmHg 27%
    14:00 +30°C° 0 mm 6 mps 636 mmHg 28%
    15:00 +30°C° 0 mm 6 mps 636 mmHg 30%
    16:00 +28°C° 0 mm 6 mps 635 mmHg 33%
    17:00 +27°C° 0 mm 5 mps 635 mmHg 37%
    18:00 +25°C° 0 mm 5 mps 634 mmHg 41%
    19:00 +22°C° 0 mm 5 mps 634 mmHg 42%
    20:00 +20°C° 0 mm 4 mps 634 mmHg 44%
    21:00 +18°C° 0 mm 4 mps 634 mmHg 45%
    22:00 +18°C° 0 mm 4 mps 634 mmHg 45%
    23:00 +17°C° 0 mm 3 mps 634 mmHg 45%

    Tomorrow, 23 August, Friday

    Time Temperature Precipitation Wind Pressure Humidity
    00:00 +17°C° 0 mm 3 mps 634 mmHg 45%
    01:00 +16°C° 0 mm 3 mps 634 mmHg 45%
    02:00 +16°C° 0 mm 3 mps 634 mmHg 46%
    03:00 +16°C° 0 mm 2 mps 634 mmHg 46%
    04:00 +15°C° 0 mm 2 mps 634 mmHg 48%
    05:00 +15°C° 0 mm 2 mps 634 mmHg 49%
    06:00 +15°C° 0 mm 2 mps 634 mmHg 50%
    07:00 +17°C° 0 mm 3 mps 635 mmHg 46%
    08:00 +20°C° 0 mm 3 mps 636 mmHg 41%
    09:00 +24°C° 0 mm 3 mps 636 mmHg 36%
    10:00 +25°C° 0 mm 4 mps 637 mmHg 34%
    11:00 +27°C° 0 mm 4 mps 637 mmHg 32%
    12:00 +28°C° 0 mm 4 mps 637 mmHg 30%
    13:00 +28°C° 0 mm 5 mps 637 mmHg 30%
    14:00 +29°C° 0 mm 5 mps 637 mmHg 31%
    15:00 +29°C° 0 mm 6 mps 636 mmHg 32%
    16:00 +27°C° 0 mm 6 mps 636 mmHg 36%
    17:00 +26°C° 0 mm 5 mps 635 mmHg 40%
    18:00 +23°C° 0 mm 5 mps 635 mmHg 43%
    19:00 +22°C° 0 mm 5 mps 635 mmHg 46%
    20:00 +20°C° 0 mm 4 mps 635 mmHg 48%
    21:00 +18°C° 0 mm 3 mps 635 mmHg 50%
    22:00 +18°C° 0 mm 3 mps 635 mmHg 52%
    23:00 +17°C° 0 mm 3 mps 635 mmHg 53%

    Day after tomorrow, 24 August, Saturday

    Time Temperature Precipitation Wind Pressure Humidity
    00:00 +17°C° 0 mm 2 mps 635 mmHg 54%
    01:00 +16°C° 0 mm 2 mps 635 mmHg 55%
    02:00 +16°C° 0 mm 2 mps 635 mmHg 56%
    03:00 +16°C° 0 mm 2 mps 635 mmHg 57%
    04:00 +15°C° 0 mm 2 mps 635 mmHg 57%
    05:00 +15°C° 0 mm 2 mps 635 mmHg 57%
    06:00 +15°C° 0 mm 2 mps 635 mmHg 58%
    07:00 +18°C° 0 mm 2 mps 636 mmHg 51%
    08:00 +21°C° 0 mm 2 mps 637 mmHg 44%
    09:00 +25°C° 0 mm 2 mps 638 mmHg 37%
    10:00 +26°C° 0 mm 2 mps 638 mmHg 34%
    11:00 +28°C° 0 mm 2 mps 638 mmHg 31%
    12:00 +30°C° 0 mm 2 mps 639 mmHg 28%
    13:00 +29°C° 0 mm 3 mps 639 mmHg 29%
    14:00 +29°C° 0 mm 3 mps 638 mmHg 30%
    15:00 +29°C° 0 mm 4 mps 638 mmHg 31%
    16:00 +26°C° 1.3 mm 4 mps 637 mmHg 44%
    17:00 +22°C° 1.3 mm 5 mps 637 mmHg 57%
    18:00 +19°C° 1.3 mm 5 mps 636 mmHg 70%
    19:00 +18°C° 0.2 mm 4 mps 636 mmHg 71%
    20:00 +18°C° 0.2 mm 3 mps 637 mmHg 71%
    21:00 +17°C° 0.2 mm 3 mps 637 mmHg 71%
    22:00 +17°C° 0 mm 2 mps 637 mmHg 71%
    23:00 +17°C° 0 mm 2 mps 637 mmHg 70%

    25 August, Sunday

    Time Temperature Precipitation Wind Pressure Humidity
    00:00 +18°C° 0 mm 1 mps 637 mmHg 70%
    01:00 +16°C° 0 mm 1 mps 637 mmHg 70%
    02:00 +16°C° 0 mm 1 mps 636 mmHg 70%
    03:00 +16°C° 0 mm 1 mps 636 mmHg 70%
    04:00 +16°C° 0 mm 1 mps 636 mmHg 70%
    05:00 +16°C° 0 mm 1 mps 636 mmHg 70%
    06:00 +16°C° 0 mm 1 mps 636 mmHg 70%
    07:00 +19°C° 0 mm 1 mps 637 mmHg 62%
    08:00 +22°C° 0 mm 1 mps 637 mmHg 54%
    09:00 +24°C° 0 mm 1 mps 638 mmHg 46%
    10:00 +26°C° 0 mm 1 mps 638 mmHg 42%
    11:00 +27°C° 0 mm 1 mps 638 mmHg 37%
    12:00 +29°C° 0 mm 2 mps 639 mmHg 33%
    13:00 +30°C° 0 mm 2 mps 638 mmHg 31%
    14:00 +30°C° 0 mm 2 mps 638 mmHg 29%
    15:00 +31°C° 0 mm 2 mps 638 mmHg 27%
    16:00 +29°C° 0 mm 2 mps 638 mmHg 34%
    17:00 +28°C° 0 mm 3 mps 637 mmHg 42%
    18:00 +26°C° 0 mm 4 mps 637 mmHg 49%
    19:00 +25°C° 0 mm 3 mps 637 mmHg 52%
    20:00 +23°C° 0 mm 2 mps 637 mmHg 56%
    21:00 +21°C° 0 mm 2 mps 637 mmHg 59%
    22:00 +20°C° 0 mm 2 mps 637 mmHg 60%
    23:00 +20°C° 0 mm 2 mps 637 mmHg 61%

    26 August, Monday

    Time Temperature Precipitation Wind Pressure Humidity
    00:00 +19°C° 0 mm 2 mps 637 mmHg 62%
    01:00 +19°C° 0 mm 2 mps 636 mmHg 63%
    02:00 +18°C° 0 mm 2 mps 636 mmHg 63%
    03:00 +19°C° 0 mm 1 mps 636 mmHg 64%
    04:00 +19°C° 0 mm 1 mps 635 mmHg 64%
    05:00 +18°C° 0 mm 1 mps 635 mmHg 65%
    06:00 +18°C° 0 mm 1 mps 635 mmHg 65%
    07:00 +20°C° 0 mm 2 mps 636 mmHg 58%
    08:00 +23°C° 0 mm 2 mps 637 mmHg 51%
    09:00 +25°C° 0 mm 2 mps 637 mmHg 44%
    10:00 +27°C° 0 mm 2 mps 637 mmHg 40%
    11:00 +28°C° 0 mm 2 mps 638 mmHg 36%
    12:00 +30°C° 0 mm 2 mps 638 mmHg 32%
    13:00 +31°C° 0.1 mm 3 mps 638 mmHg 30%
    14:00 +31°C° 0.1 mm 3 mps 637 mmHg 29%
    15:00 +33°C° 0.1 mm 3 mps 637 mmHg 28%
    16:00 +29°C° 0.5 mm 4 mps 637 mmHg 39%
    17:00 +26°C° 0.5 mm 4 mps 636 mmHg 49%
    18:00 +22°C° 0.5 mm 4 mps 635 mmHg 60%
    19:00 +21°C° 0.2 mm 4 mps 636 mmHg 63%
    20:00 +20°C° 0.2 mm 4 mps 636 mmHg 67%
    21:00 +20°C° 0.2 mm 3 mps 636 mmHg 70%
    22:00 +19°C° 0.3 mm 3 mps 636 mmHg 73%
    23:00 +18°C° 0.3 mm 3 mps 636 mmHg 76%

    27 August, Tuesday

    Time Temperature Precipitation Wind Pressure Humidity
    00:00 +17°C° 0.3 mm 3 mps 636 mmHg 79%
    01:00 +17°C° 0.1 mm 3 mps 636 mmHg 79%
    02:00 +16°C° 0.1 mm 3 mps 636 mmHg 80%
    03:00 +16°C° 0.1 mm 3 mps 635 mmHg 81%
    04:00 +16°C° 0 mm 3 mps 635 mmHg 82%
    05:00 +16°C° 0 mm 3 mps 636 mmHg 83%
    06:00 +14°C° 0 mm 3 mps 636 mmHg 84%
    07:00 +17°C° 0 mm 3 mps 636 mmHg 76%
    08:00 +19°C° 0 mm 3 mps 637 mmHg 67%
    09:00 +21°C° 0 mm 4 mps 637 mmHg 58%
    10:00 +22°C° 0.2 mm 4 mps 637 mmHg 55%
    11:00 +25°C° 0.2 mm 4 mps 638 mmHg 51%
    12:00 +26°C° 0.2 mm 5 mps 638 mmHg 47%
    13:00 +26°C° 0.2 mm 5 mps 637 mmHg 46%
    14:00 +26°C° 0.2 mm 5 mps 637 mmHg 45%
    15:00 +26°C° 0.2 mm 5 mps 637 mmHg 43%
    16:00 +25°C° 0.6 mm 5 mps 636 mmHg 51%
    17:00 +22°C° 0.6 mm 4 mps 636 mmHg 59%
    18:00 +20°C° 0.6 mm 4 mps 636 mmHg 66%
    19:00 +19°C° 1.4 mm 3 mps 636 mmHg 69%
    20:00 +18°C° 1.4 mm 3 mps 636 mmHg 71%
    21:00 +17°C° 1.4 mm 3 mps 637 mmHg 74%
    22:00 +16°C° 0 mm 3 mps 637 mmHg 74%
    23:00 +16°C° 0 mm 2 mps 637 mmHg 74%
    Show more